Home   Weather   Atlantic City   Past weeks
Flag for USA

Past Weather in Atlantic City, New Jersey, USA — Yesterday and Last 2 Weeks

Now
76 °F

Sunny.


Feels Like: 77 °F
Forecast: 74 / 64 °F
Wind: 13 mph from Southwest

Location: Atlantic City International Airport

Current Time: May 20, 2019 at 8:40:43 am

Latest Report: May 20, 2019 at 7:54 am


Visibility: 10 mi

Pressure: 29.88 "Hg

Humidity: 74%

Dew Point: 67 °F

Location of Atlantic CityLocation

Past Weather in Atlantic City — Graph

°F

Atlantic City Temperature Yesterday

Maximum temperature yesterday: 77 °F (at 11:54 am)
Minimum temperature yesterday: 61 °F (at 12:54 am)
Average temperature yesterday: 69 °F

High & Low Weather Summary for the Past Weeks

 TemperatureHumidityPressure
High82 °F (May 17, 12:54 pm)100% (May 5, 6:54 am)30.28 "Hg (May 5, 6:54 am)
Low43 °F (May 15, 4:54 am)36% (May 15, 5:54 pm)29.70 "Hg (May 5, 6:04 pm)
Average60 °F83%29.95 "Hg
* Reported May 5 6:54 am — May 20 6:54 am, Atlantic City. Weather by CustomWeather, © 2019

Note: Actual official high and low records may vary slightly from our data, if they occured in-between our weather recording intervals... More about our weather records

Advertising

Atlantic City Weather History for the Previous 24 Hours

Scroll right to see more
 ConditionsComfort  
Time TempWeatherWind HumidityBarometerVisibility
6:54 am
Mon, May 20
72 °FSunny.12 mph84%29.88 "Hg10 mi
5:54 am67 °FSunny.7 mph93%29.87 "Hg9 mi
4:54 am68 °FClear.8 mph90%29.87 "Hg10 mi
3:54 am67 °FClear.7 mph93%29.89 "Hg10 mi
2:54 am67 °FClear.7 mph90%29.91 "Hg10 mi
1:54 am67 °FClear.7 mph90%29.92 "Hg10 mi
12:54 am68 °FClear.15 mph87%29.93 "Hg10 mi
11:54 pm
Sun, May 19
69 °FClear.14 mph84%29.93 "Hg10 mi
10:54 pm68 °FClear.12 mph90%29.95 "Hg10 mi
9:54 pm68 °FPassing clouds.17 mph96%29.96 "Hg10 mi
9:30 pm69 °FPassing clouds.16 mph93%29.95 "Hg9 mi
9:12 pm69 °FPassing clouds.18 mph96%29.94 "Hg9 mi
8:54 pm69 °FLow clouds.17 mph96%29.94 "Hg8 mi
7:54 pm69 °FFog.15 mph96%29.95 "Hg5 mi
6:54 pm70 °FLow clouds.16 mph93%29.96 "Hg8 mi
5:54 pm72 °FLow clouds.16 mph87%29.96 "Hg10 mi
5:31 pm72 °FLow clouds.21 mph87%29.97 "Hg10 mi
4:54 pm73 °FOvercast.18 mph84%29.98 "Hg10 mi
3:54 pm75 °FOvercast.15 mph82%30.00 "Hg10 mi
2:54 pm75 °FMostly cloudy.15 mph82%30.03 "Hg10 mi
1:54 pm75 °FMostly cloudy.17 mph79%30.04 "Hg10 mi
12:54 pm77 °FPartly sunny.16 mph77%30.05 "Hg10 mi
11:54 am77 °FPassing clouds.17 mph77%30.06 "Hg10 mi
10:54 am74 °FSunny.14 mph76%30.07 "Hg10 mi
9:54 am71 °FSunny.13 mph81%30.07 "Hg10 mi
8:54 am69 °FPartly sunny.12 mph79%30.08 "Hg10 mi
Weather by CustomWeather, © 2019

See weather overview